Location: Ammerl�gen
(47.2167°N, 9.6000°E)
Time: 20:40:00
(UTC+00:00)

DMSP 5D-2 F13 DEB - Pass Details

Date: 24 October 2021
Orbit: 758 x 780 km, 98.7° (Epoch: 03 December)

Event Time Altitude Azimuth Distance (km) Brightness Sun altitude
Exits shadow 17:46:59 19° 55° (NE) 1,743 ? -15.8°
Drops below altitude 10° 17:50:17 10° 14° (NNE) 2,302 ? -16.3°
Sets 17:53:09 0° 358° (N) 3,230 ? -16.8°
